Location: Caltech
(34.1382°N, 118.1253°W)
Time: 22:00:22
(UTC-07:00)

SO-50 - Visible Passes

Search period start: 29 May 2016 00:00
Search period end: 08 June 2016 00:00
Orbit: 595 x 694 km, 64.6° (Epoch: 29 May)

Date Brightness Start Highest point End Pass type
(mag) Time Alt. Az. Time Alt. Az. Time Alt. Az.
29 May ? 00:52:25 29° NNW 00:52:25 29° NNW 00:55:16 10° NNE visible
29 May ? 23:39:00 20° NE 23:39:00 20° NE 23:40:30 10° NE visible
30 May ? 01:16:36 17° NW 01:16:36 17° NW 01:19:45 10° N visible
31 May ? 00:03:05 34° N 00:03:05 34° N 00:06:00 10° NNE visible
31 May ? 22:49:27 18° NE 22:49:27 18° NE 22:50:49 10° NE visible
01 Jun ? 00:27:02 24° NW 00:27:02 24° NW 00:30:51 10° N visible
01 Jun ? 23:13:14 45° NNE 23:13:14 45° NNE 23:16:37 10° NNE visible
02 Jun ? 00:51:35 10° WNW 00:52:53 11° NW 00:54:11 10° NNW visible
02 Jun ? 21:59:12 18° ENE 21:59:12 18° ENE 22:00:56 10° ENE visible
02 Jun ? 23:36:45 33° WNW 23:37:17 34° NW 23:41:45 10° N visible
03 Jun ? 22:22:22 65° ESE 22:22:22 65° ESE 22:27:07 10° NE visible
04 Jun ? 00:00:17 10° W 00:03:10 15° NW 00:06:03 10° NNW visible
04 Jun ? 21:07:25 16° ESE 21:07:41 16° ESE 21:10:42 10° ENE visible
04 Jun ? 22:44:53 22° WSW 22:47:45 49° WNW 22:52:31 10° NNE visible
05 Jun ? 21:28:26 11° S 21:32:51 43° ESE 21:37:29 10° NE visible
05 Jun ? 23:09:46 10° W 23:13:30 21° NW 23:17:15 10° N visible
06 Jun ? 21:53:22 10° SW 21:58:15 73° WNW 22:03:10 10° NNE visible
07 Jun ? 20:39:20 10° S 20:43:30 28° ESE 20:47:41 10° NE visible
07 Jun ? 22:19:36 10° WSW 22:23:53 30° NW 22:28:11 10° N visible
